This is the latest recevied weather packets stored in our database for station/object WP4PW. If no packets are shown the sender has not sent any weather packets the latest 10 day(s).
| Time | Temp. | Humidity | Pressure | Rain* | Wind** | Luminosity | Snow |
|---|---|---|---|---|---|---|---|
| 1777742482 | 30° C | 79% | 1020.5 hPa | 0 mm | - | 788 W/m² | - |
| 1777742177 | 30° C | 78% | 1020.6 hPa | 0 mm | - | 795 W/m² | - |
| 1777741874 | 30° C | 78% | 1020.7 hPa | 0 mm | - | 795 W/m² | - |
| 1777741571 | 29.44° C | 78% | 1020.6 hPa | 0 mm | - | 805 W/m² | - |
| 1777741269 | 29.44° C | 80% | 1020.8 hPa | 0 mm | - | 809 W/m² | - |
| 1777740965 | 31.11° C | 77% | 1020.8 hPa | 0 mm | - | 813 W/m² | - |
| 1777740662 | 30° C | 78% | 1020.9 hPa | 0 mm | - | 851 W/m² | - |
| 1777740358 | 29.44° C | 80% | 1021 hPa | 0 mm | - | 826 W/m² | - |
| 1777740055 | 29.44° C | 80% | 1021.1 hPa | 0 mm | - | 822 W/m² | - |
| 1777739751 | 30° C | 77% | 1021.1 hPa | 0 mm | - | 841 W/m² | - |
| 1777739448 | 30° C | 80% | 1021.2 hPa | 0 mm | - | 841 W/m² | - |
| 1777739145 | 30° C | 78% | 1020.9 hPa | 0 mm | - | 1003 W/m² | - |
| 1777738842 | 30° C | 79% | 1021.1 hPa | 0 mm | - | 572 W/m² | - |
| 1777738538 | 30.56° C | 78% | 1021.4 hPa | 0 mm | - | 825 W/m² | - |
| 1777738236 | 30° C | 76% | 1021.4 hPa | 0 mm | - | 823 W/m² | - |
| 1777737934 | 30° C | 76% | 1021.2 hPa | 0 mm | - | 820 W/m² | - |
| 1777737632 | 30° C | 77% | 1021.4 hPa | 0 mm | - | 820 W/m² | - |
| 1777737331 | 29.44° C | 77% | 1021.5 hPa | 0 mm | - | 821 W/m² | - |
| 1777737027 | 30° C | 77% | 1021.4 hPa | 0 mm | - | 816 W/m² | - |
| 1777736722 | 29.44° C | 78% | 1021.6 hPa | 0 mm | - | 810 W/m² | - |
| 1777736090 | 30° C | 73% | 1021.6 hPa | 0 mm | - | 801 W/m² | - |
| 1777735786 | 30.56° C | 76% | 1021.8 hPa | 0 mm | - | 798 W/m² | - |
| 1777735484 | 29.44° C | 77% | 1021.8 hPa | 0 mm | - | 792 W/m² | - |
| 1777735182 | 29.44° C | 76% | 1021.9 hPa | 0 mm | - | 786 W/m² | - |
| 1777734878 | 30° C | 78% | 1021.9 hPa | 0 mm | - | 784 W/m² | - |
* Rain latest hour (hover to see other rain measurements)
** Current wind speed in m/s (hover to see current wind gust speed)